User: anonymous   Login
Location: Unspecified
(0.0000°N, 0.0000°E)
Time: 13:04:42
(UTC+00:00)
Language:

Triad OI-1X - Orbit

View from above orbital plane
View from above orbital plane
View from above satellite
View from above satellite

Ground track
Ground track

The orbit data is extracted from the following two-line orbital elements,

1 06173U 72069A   21015.65148633  .00000107  00000-0  24537-4 0  9999
2 06173  89.9242 214.9618 0051239 315.2635  85.8524 14.49069084543783
Epoch (UTC): 15 January 2021 15:38:08
Eccentricity: 0.0051239
inclination: 89.9242°
perigee height: 692 km
apogee height: 765 km
right ascension of ascending node: 214.9618°
argument of perigee: 315.2635°
revolutions per day: 14.49069084
mean anomaly at epoch: 85.8524°
orbit number at epoch: 54378

The dashed part of the orbit path shows where the satellite is in the earth's shadow,  

DLR